[[{"header":{"parameterUnit":"m.s-1","parameterCategory":1,"la1":30.2991,"la2":30.254,"lo1":-89.0895,"lo2":-89.0444,"dy":0.0017,"dx":0.0017,"nx":28,"ny":28,"refTime":"2024-05-05T03:00:00:Z","depth":0,"parameterNumber":2,"parameterNumberName":"U-component_of_WINDS"},"data":[0,0,0,0,0,0,0,0,0,0,0,0,0,0,0,0,0,0,0,0,0,0,0,0,0,0,0,0,0,0,0,0,0,0,0,0,0,0,0,0,0,0,0,0,0,0,0,0,0,0,0,0,0,0,0,0,0,0,0.0381,0.0381,0,0.0407,0.0408,0.0408,0.0435,0.0435,0.0436,0.0436,0.0462,0.0463,0.0463,0,0,0,0,0,0,0,0,0,0,0,0,0,0.0353,0.0353,0.0381,0.0381,0.0382,0.0407,0.0408,0.0408,0.0435,0.0435,0.0436,0.0436,0.0462,0.0463,0.0463,0,0,0,0,0,0,0,0,0,0,0,0,0,0.0371,0.0353,0.0381,0.0398,0.04,0.0407,0.0408,0.0408,0.0435,0.0435,0.0436,0.0436,0.0462,0.0463,0.0463,0.0455,0,0,0.0465,0.0465,0,0,0,0,0,0,0,0,0.037,0.0372,0.0395,0.0397,0.0399,0.0419,0.0407,0.0424,0.0435,0.0422,0.0436,0.0437,0.0447,0.0449,0.0453,0.0456,0.0458,0.0465,0.0465,0.0465,0.0465,0,0,0,0,0,0,0,0.0368,0.0371,0.0391,0.0396,0.0398,0.0404,0.0407,0.0411,0.0431,0.0423,0.0425,0.0428,0.0448,0.0452,0.0453,0.0458,0.0465,0.0465,0.0466,0.0466,0.0456,0.0455,0,0,0,0,0,0,0.0365,0.037,0.0391,0.0392,0.0386,0.0404,0.0408,0.0412,0.0431,0.0434,0.0427,0.0429,0.0451,0.0453,0.0455,0.0446,0.0465,0.0466,0.0466,0.0457,0.0456,0.0455,0,0,0,0,0,0,0.0364,0.0366,0.039,0.0381,0.0385,0.0404,0.0408,0.0412,0.0416,0.0434,0.0438,0.0427,0.0451,0.0454,0.0455,0.0447,0.0466,0.0466,0.0457,0.0456,0.0456,0.0429,0,0,0,0,0,0,0.0363,0.0366,0.0363,0.0381,0.0385,0.0389,0.0408,0.0412,0.0417,0.0419,0.0435,0.0439,0.0452,0.0454,0.0455,0.0448,0.0467,0.0458,0.0457,0.0456,0.043,0.0427,0.0424,0,0,0,0,0,0.0362,0.0355,0.0363,0.0365,0.0382,0.0389,0.0391,0.0407,0.0416,0.0413,0.0425,0.0438,0.0448,0.0454,0.0456,0.0449,0.0459,0.0457,0.0456,0.0432,0.0428,0.0424,0,0,0,0,0,0,0.0335,0.0357,0.0367,0.0365,0.0375,0.0394,0.0391,0.0402,0.041,0.0412,0.0431,0.0434,0.0433,0.0441,0.0447,0.0442,0.0455,0.0454,0.0436,0.0432,0.0429,0.0427,0.0467,0,0,0,0,0,0.0329,0.0333,0.0352,0.0349,0.0353,0.0371,0.0374,0.0386,0.0397,0.0401,0.0413,0.0422,0.0428,0.0431,0.0437,0.0432,0.0436,0.0428,0.0425,0.0423,0.0421,0.0419,0.0415,0.0451,0.0451,0.0451,0,0,0.0316,0.0329,0.033,0.0344,0.0353,0.0355,0.0374,0.0377,0.0379,0.0401,0.0402,0.0412,0.0424,0.0422,0.0421,0.0429,0.0412,0.0421,0.0419,0.0419,0.0417,0.0414,0.041,0.045,0.045,0.045,0,0,0.0294,0.0305,0.0303,0.0312,0.0325,0.0337,0.0336,0.0353,0.036,0.0362,0.0378,0.0381,0.039,0.0398,0.0403,0.0384,0.0396,0.0386,0.037,0.0367,0.0364,0.0361,0.0354,0.0351,0.0385,0.0385,0.0385,0,0.0277,0.0282,0.03,0.0302,0.0307,0.0328,0.0325,0.0333,0.0347,0.035,0.0358,0.0369,0.0379,0.0379,0.0374,0.0378,0.0377,0.0384,0.0363,0.0361,0.0359,0.0351,0.0349,0.0383,0.0383,0.0384,0.0384,0,0.0259,0.0263,0.026,0.0273,0.0278,0.0278,0.0295,0.0298,0.0309,0.032,0.0321,0.0334,0.0342,0.0344,0.0354,0.0344,0.0348,0.0359,0.0373,0.0354,0.0347,0.0344,0.0381,0.0382,0.0382,0.0383,0,0,0.022,0.0244,0.0242,0.0249,0.0265,0.0268,0.0268,0.0277,0.0278,0.0288,0.0288,0.0295,0.0306,0.0311,0.0324,0.0321,0.0304,0.0333,0.0333,0.0326,0.0293,0.0283,0.028,0.0313,0.0312,0.0312,0.0292,0,0.02,0.0202,0.0218,0.0215,0.0219,0.0239,0.0239,0.0249,0.0259,0.0263,0.0275,0.0279,0.0293,0.0296,0.0295,0.0307,0.0298,0.0309,0.0312,0.0312,0.0307,0.0277,0.0267,0.0247,0.0289,0.0289,0.0289,0,0.0176,0.0185,0.0182,0.0198,0.02,0.02,0.0209,0.0213,0.0224,0.0232,0.0239,0.0252,0.0253,0.0267,0.0269,0.0275,0.0278,0.0284,0.0284,0.0284,0.0298,0.0275,0.0241,0.0237,0.0285,0.0285,0.0286,0,0.0146,0.0157,0.0157,0.0162,0.0181,0.018,0.0188,0.02,0.0204,0.0212,0.0215,0.0223,0.0227,0.0233,0.0248,0.0257,0.0247,0.0262,0.0253,0.0252,0.0249,0.0248,0.0213,0.0253,0.0253,0.0253,0.0253,0,0.0121,0.0118,0.0143,0.0143,0.014,0.0159,0.0156,0.0166,0.0177,0.0178,0.0197,0.0198,0.0219,0.0222,0.0234,0.0233,0.0235,0.024,0.0243,0.0238,0.0237,0.0239,0.024,0.0252,0.0252,0.0252,0.0252,0,0.0086,0.0103,0.0104,0.0123,0.0127,0.0124,0.014,0.014,0.0152,0.0154,0.0155,0.0173,0.0178,0.0194,0.0203,0.0211,0.0206,0.0213,0.0202,0.0203,0.0192,0.0192,0.0156,0.0152,0.0195,0.0195,0.0194,0,0.0069,0.0067,0.0086,0.0088,0.0095,0.0099,0.0103,0.0122,0.0126,0.0139,0.0137,0.0144,0.015,0.0156,0.017,0.0177,0.0183,0.017,0.0184,0.0178,0.0181,0.018,0.018,0.0166,0.0166,0.0165,0.0165,0,0.0035,0.0043,0.0049,0.0057,0.0062,0.0069,0.0078,0.0079,0.01,0.0103,0.0108,0.0113,0.0122,0.0127,0.0136,0.0144,0.0157,0.0161,0.0158,0.0152,0.0145,0.0147,0.0192,0.0161,0.0161,0.0162,0.0162,0.0162,0.0007,0.0006,0.0019,0.0024,0.0033,0.0041,0.0041,0.0054,0.0058,0.0067,0.0079,0.0082,0.0094,0.0107,0.0114,0.0117,0.0124,0.0122,0.0121,0.0119,0.0116,0.0146,0.0119,0.0119,0.0119,0.0119,0.0119,0,-0.0028,-0.0018,-0.0013,-0.0002,0.0003,0.0016,0.0026,0.0029,0.0032,0.0042,0.0047,0.0053,0.0058,0.0073,0.008,0.0079,0.0086,0.008,0.008,0.0081,0.011,0.011,0.0075,0.0075,0.0075,0.0075,0.0075,0.0075,-0.0045,-0.0046,-0.0036,-0.0033,-0.0023,-0.0019,-0.0015,-0.0008,0.0,0.0006,0.0011,0.0021,0.0032,0.004,0.0046,0.005,0.0051,0.0043,0.0049,0.0075,0.0079,0.0083,0.0084,0.0044,0.0044,0.0021,0.002,0.002]},{"header":{"parameterUnit":"m.s-1","parameterCategory":1,"la1":30.2991,"la2":30.254,"lo1":-89.0895,"lo2":-89.0444,"dy":0.0017,"dx":0.0017,"nx":28,"ny":28,"refTime":"2024-05-05T03:00:00:Z","depth":0,"parameterNumber":3,"parameterNumberName":"V-component_of_WINDS"},"data":[0,0,0,0,0,0,0,0,0,0,0,0,0,0,0,0,0,0,0,0,0,0,0,0,0,0,0,0,0,0,0,0,0,0,0,0,0,0,0,0,0,0,0,0,0,0,0,0,0,0,0,0,0,0,0,0,0,0,3.3798,3.3798,0,3.378,3.378,3.378,3.3765,3.3765,3.3765,3.3765,3.3744,3.3743,3.3743,0,0,0,0,0,0,0,0,0,0,0,0,0,3.3818,3.3818,3.3798,3.3798,3.3798,3.378,3.378,3.378,3.3765,3.3765,3.3765,3.3765,3.3744,3.3744,3.3743,0,0,0,0,0,0,0,0,0,0,0,0,0,3.3806,3.3818,3.3798,3.3788,3.3787,3.3781,3.378,3.378,3.3765,3.3765,3.3765,3.3764,3.3744,3.3744,3.3743,3.3744,0,0,3.3741,3.3741,0,0,0,0,0,0,0,0,3.3807,3.3805,3.379,3.3789,3.3788,3.3775,3.378,3.3768,3.3765,3.3774,3.3765,3.3764,3.3754,3.3753,3.375,3.3743,3.3742,3.3741,3.3741,3.374,3.374,0,0,0,0,0,0,0,3.3807,3.3806,3.3791,3.379,3.3789,3.3784,3.3782,3.3777,3.3765,3.3773,3.3772,3.377,3.3753,3.375,3.3749,3.3742,3.3741,3.374,3.374,3.374,3.3735,3.3735,0,0,0,0,0,0,3.381,3.3807,3.3792,3.3791,3.3797,3.3784,3.3782,3.3779,3.3765,3.3763,3.377,3.3769,3.3752,3.375,3.3748,3.3749,3.374,3.374,3.3739,3.3735,3.3735,3.3735,0,0,0,0,0,0,3.3811,3.3809,3.3792,3.3798,3.3796,3.3784,3.3781,3.3779,3.3776,3.3763,3.3761,3.3769,3.3751,3.3749,3.3745,3.3748,3.374,3.3739,3.3735,3.3735,3.3735,3.3749,0,0,0,0,0,0,3.3811,3.3809,3.381,3.3799,3.3796,3.379,3.3781,3.3779,3.3775,3.3774,3.3762,3.376,3.3751,3.3746,3.3745,3.3747,3.3738,3.3734,3.3735,3.3735,3.3748,3.375,3.3751,0,0,0,0,0,3.3812,3.3813,3.381,3.3808,3.3796,3.379,3.3789,3.3779,3.3775,3.3776,3.3768,3.376,3.3748,3.3746,3.3744,3.3746,3.3734,3.3735,3.3735,3.3748,3.375,3.3751,0,0,0,0,0,0,3.3824,3.3812,3.3807,3.3805,3.3799,3.3788,3.3787,3.3782,3.3775,3.3774,3.3763,3.376,3.3757,3.3751,3.3749,3.3746,3.374,3.374,3.375,3.3752,3.3753,3.3755,3.3738,0,0,0,0,0,3.3827,3.3824,3.3813,3.3812,3.3809,3.3799,3.3796,3.379,3.3783,3.3779,3.3771,3.3764,3.3759,3.3755,3.3749,3.3748,3.3745,3.3748,3.375,3.3751,3.3751,3.375,3.3752,3.3737,3.3737,3.3737,0,0,3.3831,3.3824,3.3823,3.3814,3.3809,3.3805,3.3797,3.3793,3.3791,3.3779,3.3775,3.3769,3.376,3.3757,3.3756,3.3752,3.3755,3.3752,3.3753,3.3752,3.3751,3.3752,3.3753,3.3738,3.3738,3.3737,0,0,3.3839,3.3833,3.3832,3.3827,3.3819,3.3813,3.3813,3.3803,3.3798,3.3795,3.3786,3.3782,3.3773,3.3767,3.3763,3.377,3.3763,3.3769,3.3776,3.3775,3.3776,3.3777,3.3779,3.378,3.3769,3.3769,3.3769,0,3.3845,3.3841,3.3832,3.383,3.3826,3.3817,3.3816,3.3811,3.3801,3.3799,3.3795,3.3785,3.3778,3.3774,3.3776,3.3773,3.3772,3.3769,3.3777,3.3778,3.3778,3.378,3.3781,3.377,3.3769,3.3769,3.3769,0,3.3849,3.3846,3.3847,3.3839,3.3835,3.3833,3.3825,3.3822,3.3817,3.3811,3.3807,3.3799,3.3792,3.3791,3.3785,3.3786,3.3784,3.3779,3.3772,3.3781,3.3782,3.3783,3.3771,3.377,3.377,3.377,0,0,3.3862,3.3851,3.3851,3.3848,3.3839,3.3836,3.3834,3.3828,3.3826,3.3821,3.3818,3.3812,3.3807,3.3803,3.3796,3.3796,3.3802,3.379,3.379,3.3792,3.3803,3.3807,3.3808,3.3798,3.3798,3.3798,3.3804,0,3.3868,3.3864,3.3857,3.3856,3.3853,3.3844,3.3843,3.3837,3.3832,3.3828,3.3822,3.3817,3.3812,3.3809,3.3808,3.3801,3.3804,3.3801,3.3795,3.3795,3.3797,3.3809,3.3812,3.3819,3.3805,3.3805,3.3805,0,3.3873,3.3869,3.3867,3.386,3.3858,3.3857,3.3851,3.3848,3.3842,3.3838,3.3834,3.3827,3.3825,3.3819,3.3815,3.3814,3.3811,3.3807,3.3807,3.3806,3.38,3.3807,3.382,3.3821,3.3806,3.3806,3.3806,0,3.3883,3.3876,3.3875,3.3872,3.3863,3.3863,3.3859,3.3852,3.3849,3.3845,3.3843,3.3837,3.3834,3.383,3.3822,3.3819,3.3819,3.3813,3.3815,3.3816,3.3815,3.3815,3.3827,3.3814,3.3814,3.3814,3.3814,0,3.3889,3.3888,3.3879,3.3878,3.3877,3.3869,3.3869,3.3864,3.3859,3.3856,3.3849,3.3847,3.3837,3.3833,3.3827,3.3825,3.3824,3.382,3.3818,3.382,3.3821,3.3818,3.3817,3.3815,3.3815,3.3814,3.3814,0,3.3899,3.3893,3.389,3.3883,3.3881,3.388,3.3874,3.3872,3.3867,3.3864,3.3863,3.3855,3.3851,3.3843,3.3836,3.3832,3.3831,3.3828,3.3833,3.3832,3.3835,3.3835,3.3845,3.3846,3.3833,3.3833,3.3834,0,3.3903,3.3902,3.3895,3.3894,3.389,3.3888,3.3885,3.3878,3.3875,3.3869,3.3868,3.3864,3.386,3.3854,3.3847,3.3842,3.3839,3.3843,3.3838,3.384,3.3838,3.3838,3.3838,3.3843,3.3844,3.3844,3.3844,0,3.3911,3.3908,3.3905,3.3902,3.3899,3.3896,3.3891,3.389,3.3882,3.388,3.3876,3.3873,3.3867,3.3863,3.3857,3.3853,3.3847,3.3846,3.3846,3.3848,3.3851,3.3849,3.3836,3.3845,3.3845,3.3845,3.3845,3.3845,3.3918,3.3917,3.3912,3.3909,3.3906,3.3903,3.3901,3.3897,3.3894,3.3889,3.3885,3.3881,3.3876,3.3868,3.3864,3.3861,3.3858,3.3858,3.3858,3.3858,3.3859,3.3852,3.386,3.386,3.386,3.386,3.386,0,3.3926,3.3922,3.392,3.3915,3.3913,3.3909,3.3904,3.3903,3.39,3.3896,3.3892,3.3888,3.3884,3.3878,3.3873,3.3872,3.3869,3.3871,3.3871,3.387,3.3862,3.3862,3.3874,3.3874,3.3874,3.3874,3.3874,3.3874,3.3929,3.3928,3.3925,3.3922,3.3919,3.3916,3.3914,3.3911,3.3907,3.3904,3.3901,3.3897,3.3891,3.3887,3.3883,3.3881,3.3879,3.3882,3.3879,3.3872,3.387,3.3869,3.3869,3.3882,3.3882,3.3887,3.3887,3.3887]}]]